UAE83 OMDB-LSGG

Flight info

Callsign UAE83
Flight time 6h 18m
Altitude 34000
Route RIDAP M557 TUMAK L602 GADSI M860 SEPTU DCT VUSEB/N0483F360 M860 NINVA UM860 ODALI UL852 NEGEM DCT DOLAP DCT VEBAR DCT UZVEZ DCT BOSNA DCT NAVSU DCT KOREX DCT OBALA DCT NAKIT DCT ROTAR DCT OSKOR/N0485F370 DCT SRN/N0444F220 DCT AOSTA L615 BANKO
Aircraft B77W/H-SDE1E2E3FGHIJ2J3J4J5M1RWXY/LB1D1

Departure

Time 2026-04-22 19:01
Airport Dubai International Airport (OMDB)

Arrival

Time 2026-04-23 01:19
Airport Geneva International Airport (LSGG)
Time Latitude Longitude Altitude Speed Heading
2026-04-22 18:15 25.25171 55.35399 30 ft 0 kts 31°
2026-04-22 18:42 25.25170 55.35398 26 ft 1 kts 31°
2026-04-22 18:42 25.25156 55.35389 30 ft 3 kts 31°
2026-04-22 18:42 25.25139 55.35378 30 ft 3 kts 31°
2026-04-22 18:42 25.25126 55.35369 31 ft 3 kts 22°
2026-04-22 18:43 25.25110 55.35365 31 ft 3 kts 334°
2026-04-22 18:43 25.25096 55.35378 31 ft 3 kts 302°
2026-04-22 18:43 25.25087 55.35394 31 ft 1 kts 301°
2026-04-22 18:43 25.25086 55.35396 31 ft 0 kts 302°
2026-04-22 18:47 25.25092 55.35385 30 ft 5 kts 302°
2026-04-22 18:47 25.25113 55.35349 30 ft 6 kts 302°
2026-04-22 18:47 25.25133 55.35298 30 ft 9 kts 287°
2026-04-22 18:48 25.25143 55.35212 27 ft 13 kts 278°
2026-04-22 18:48 25.25181 55.35103 28 ft 16 kts 302°
2026-04-22 18:48 25.25240 55.34999 28 ft 16 kts 302°
2026-04-22 18:48 25.25301 55.34894 29 ft 16 kts 307°
2026-04-22 18:49 25.25328 55.34863 31 ft 0 kts 319°
2026-04-22 18:51 25.25379 55.34828 30 ft 16 kts 338°
2026-04-22 18:51 25.25488 55.34827 27 ft 16 kts 15°
2026-04-22 18:51 25.25587 55.34885 30 ft 16 kts 31°
2026-04-22 18:52 25.25682 55.34949 30 ft 16 kts 31°
2026-04-22 18:52 25.25778 55.35013 30 ft 16 kts 31°
2026-04-22 18:52 25.25847 55.35060 30 ft 10 kts 31°
2026-04-22 18:52 25.25905 55.35098 29 ft 10 kts 31°
2026-04-22 18:53 25.25964 55.35138 31 ft 10 kts 31°
2026-04-22 18:53 25.26022 55.35176 26 ft 10 kts 31°
2026-04-22 18:53 25.26080 55.35216 27 ft 10 kts 31°
2026-04-22 18:53 25.26135 55.35259 27 ft 8 kts 54°
2026-04-22 18:54 25.26121 55.35319 27 ft 11 kts 120°
2026-04-22 18:54 25.26078 55.35398 27 ft 12 kts 121°
2026-04-22 18:54 25.26035 55.35476 26 ft 12 kts 122°
2026-04-22 18:54 25.25990 55.35555 26 ft 12 kts 122°
2026-04-22 18:55 25.25946 55.35633 26 ft 12 kts 122°
2026-04-22 18:55 25.25901 55.35712 26 ft 12 kts 122°
2026-04-22 18:55 25.25857 55.35791 27 ft 14 kts 122°
2026-04-22 18:55 25.25801 55.35890 27 ft 18 kts 122°
2026-04-22 18:56 25.25712 55.36048 27 ft 26 kts 122°
2026-04-22 18:56 25.25615 55.36222 27 ft 26 kts 121°
2026-04-22 18:56 25.25517 55.36395 27 ft 26 kts 122°
2026-04-22 18:56 25.25420 55.36567 27 ft 26 kts 122°
2026-04-22 18:57 25.25324 55.36739 26 ft 26 kts 122°
2026-04-22 18:57 25.25228 55.36910 27 ft 26 kts 122°
2026-04-22 18:57 25.25130 55.37083 28 ft 26 kts 122°
2026-04-22 18:57 25.25034 55.37255 28 ft 26 kts 122°
2026-04-22 18:58 25.24936 55.37429 28 ft 26 kts 121°
2026-04-22 18:58 25.24840 55.37599 28 ft 26 kts 122°
2026-04-22 18:58 25.24743 55.37772 27 ft 26 kts 122°
2026-04-22 18:58 25.24645 55.37945 27 ft 26 kts 122°
2026-04-22 18:59 25.24572 55.38074 28 ft 13 kts 122°
2026-04-22 18:59 25.24572 55.38149 27 ft 10 kts 45°
2026-04-22 18:59 25.24634 55.38196 28 ft 11 kts 33°
2026-04-22 18:59 25.24681 55.38223 28 ft 5 kts
2026-04-22 19:00 25.24709 55.38198 28 ft 5 kts 311°
2026-04-22 19:00 25.24718 55.38183 29 ft 0 kts 302°
2026-04-22 19:00 25.24721 55.38178 29 ft 6 kts 302°
2026-04-22 19:00 25.24816 55.38009 30 ft 57 kts 301°
2026-04-22 19:01 25.25151 55.37406 31 ft 125 kts 301°
2026-04-22 19:01 25.25705 55.36408 30 ft 178 kts 302°
2026-04-22 19:01 25.26400 55.35179 357 ft 190 kts 302°
2026-04-22 19:01 25.27127 55.33892 801 ft 202 kts 302°
2026-04-22 19:02 25.27867 55.32572 1318 ft 206 kts 302°
2026-04-22 19:02 25.28658 55.31133 1507 ft 229 kts 302°
2026-04-22 19:02 25.29523 55.29566 1719 ft 252 kts 301°
2026-04-22 19:02 25.30511 55.27899 2225 ft 262 kts 305°
2026-04-22 19:03 25.31578 55.26241 2888 ft 266 kts 306°
2026-04-22 19:03 25.32644 55.24586 3582 ft 267 kts 306°
2026-04-22 19:03 25.33706 55.22935 4293 ft 261 kts 305°
2026-04-22 19:03 25.34760 55.21284 4893 ft 267 kts 304°
2026-04-22 19:04 25.35690 55.19485 5377 ft 270 kts 284°
2026-04-22 19:04 25.35824 55.17435 5923 ft 269 kts 265°
2026-04-22 19:04 25.35726 55.15383 6589 ft 270 kts 266°
2026-04-22 19:04 25.35651 55.13307 7289 ft 270 kts 266°
2026-04-22 19:05 25.35577 55.11213 7917 ft 273 kts 265°
2026-04-22 19:05 25.35500 55.09095 8550 ft 276 kts 265°
2026-04-22 19:05 25.35423 55.06969 9194 ft 279 kts 265°
2026-04-22 19:05 25.35345 55.04829 9824 ft 281 kts 265°
2026-04-22 19:06 25.35266 55.02660 10441 ft 287 kts 265°
2026-04-22 19:06 25.35179 55.00356 10690 ft 311 kts 265°
2026-04-22 19:06 25.35088 54.97891 10867 ft 336 kts 265°
2026-04-22 19:07 25.34920 54.93345 11384 ft 368 kts 265°
2026-04-22 19:07 25.35052 54.89561 12014 ft 379 kts 282°
2026-04-22 19:07 25.35578 54.87693 12350 ft 384 kts 287°
2026-04-22 19:07 25.36765 54.83947 13398 ft 388 kts 286°
2026-04-22 19:08 25.37333 54.82061 13999 ft 387 kts 285°
2026-04-22 19:08 25.38164 54.79222 14874 ft 386 kts 285°
2026-04-22 19:08 25.38972 54.76404 15628 ft 389 kts 285°
2026-04-22 19:08 25.39786 54.73547 16336 ft 393 kts 285°
2026-04-22 19:09 25.40615 54.70642 17073 ft 396 kts 285°
2026-04-22 19:09 25.41462 54.67710 17807 ft 400 kts 286°
2026-04-22 19:09 25.42307 54.64791 18467 ft 403 kts 286°
2026-04-22 19:09 25.43171 54.61804 19096 ft 406 kts 286°
2026-04-22 19:10 25.44032 54.58846 19727 ft 409 kts 286°
2026-04-22 19:10 25.44913 54.55853 20365 ft 412 kts 286°
2026-04-22 19:10 25.45808 54.52817 20995 ft 415 kts 286°
2026-04-22 19:10 25.46711 54.49751 21602 ft 419 kts 286°
2026-04-22 19:11 25.47606 54.46707 22174 ft 422 kts 286°
2026-04-22 19:11 25.48519 54.43597 22731 ft 426 kts 286°
2026-04-22 19:11 25.49441 54.40451 23307 ft 429 kts 286°
2026-04-22 19:11 25.50367 54.37288 23819 ft 431 kts 286°
2026-04-22 19:12 25.51282 54.34157 24362 ft 432 kts 286°
2026-04-22 19:12 25.52215 54.30963 24873 ft 434 kts 286°
2026-04-22 19:12 25.53139 54.27798 25339 ft 437 kts 286°
2026-04-22 19:12 25.54078 54.24580 25815 ft 439 kts 287°
2026-04-22 19:13 25.55030 54.21337 26259 ft 442 kts 287°
2026-04-22 19:13 25.55988 54.18105 26725 ft 444 kts 287°
2026-04-22 19:13 25.56948 54.14869 27185 ft 447 kts 287°
2026-04-22 19:13 25.57924 54.11571 27627 ft 449 kts 287°
2026-04-22 19:14 25.58888 54.08305 28050 ft 451 kts 287°
2026-04-22 19:14 25.59867 54.04960 28456 ft 454 kts 287°
2026-04-22 19:14 25.60811 54.01656 28835 ft 456 kts 287°
2026-04-22 19:14 25.61765 53.98279 29211 ft 458 kts 287°
2026-04-22 19:15 25.62719 53.94892 29537 ft 461 kts 287°
2026-04-22 19:15 25.63728 53.91558 29893 ft 462 kts 291°
2026-04-22 19:15 25.65058 53.88292 30286 ft 461 kts 296°
2026-04-22 19:15 25.66600 53.85213 30820 ft 457 kts 300°
2026-04-22 19:16 25.68366 53.82288 31398 ft 452 kts 302°
2026-04-22 19:16 25.70128 53.79419 31939 ft 447 kts 302°
2026-04-22 19:16 25.71872 53.76569 32425 ft 443 kts 302°
2026-04-22 19:16 25.73577 53.73771 32866 ft 440 kts 302°
2026-04-22 19:17 25.75280 53.70965 33400 ft 434 kts 302°
2026-04-22 19:17 25.76960 53.68190 33831 ft 432 kts 302°
2026-04-22 19:17 25.78632 53.65421 33807 ft 436 kts 302°
2026-04-22 19:18 25.82011 53.59814 33816 ft 439 kts 301°
2026-04-22 19:18 25.85397 53.54190 33814 ft 436 kts 301°
2026-04-22 19:19 25.88754 53.48609 33816 ft 434 kts 301°
2026-04-22 19:19 25.92112 53.43019 33816 ft 434 kts 301°
2026-04-22 19:20 25.95452 53.37452 33815 ft 434 kts 301°
2026-04-22 19:20 25.98809 53.31850 33817 ft 435 kts 301°
2026-04-22 19:21 26.02153 53.26263 33817 ft 436 kts 301°
2026-04-22 19:21 26.05505 53.20656 33818 ft 436 kts 301°
2026-04-22 19:22 26.08874 53.15014 33818 ft 436 kts 301°
2026-04-22 19:22 26.12229 53.09390 33818 ft 436 kts 301°
2026-04-22 19:23 26.15574 53.03775 33818 ft 436 kts 301°
2026-04-22 19:23 26.18902 52.98180 33818 ft 435 kts 301°
2026-04-22 19:24 26.22245 52.92554 33820 ft 434 kts 301°
2026-04-22 19:24 26.25573 52.86947 33821 ft 433 kts 300°
2026-04-22 19:25 26.28896 52.81340 33830 ft 433 kts 300°
2026-04-22 19:25 26.32209 52.75744 33828 ft 434 kts 300°
2026-04-22 19:26 26.35526 52.70135 33829 ft 433 kts 300°
2026-04-22 19:26 26.38833 52.64535 33829 ft 432 kts 300°
2026-04-22 19:27 26.42127 52.58951 33834 ft 431 kts 300°
2026-04-22 19:27 26.45414 52.53373 33846 ft 430 kts 299°
2026-04-22 19:28 26.48692 52.47801 33831 ft 430 kts 299°
2026-04-22 19:28 26.51959 52.42242 33840 ft 429 kts 298°
2026-04-22 19:29 26.55246 52.36641 33846 ft 429 kts 298°
2026-04-22 19:29 26.58501 52.31087 33840 ft 429 kts 298°
2026-04-22 19:30 26.61233 52.26423 33864 ft 429 kts 298°
2026-04-22 19:30 26.65026 52.19937 33854 ft 429 kts 298°
2026-04-22 19:31 26.68280 52.14366 33853 ft 428 kts 298°
2026-04-22 19:31 26.71541 52.08775 33855 ft 427 kts 298°
2026-04-22 19:32 26.74773 52.03228 33832 ft 426 kts 298°
2026-04-22 19:32 26.78002 51.97677 33854 ft 428 kts 297°
2026-04-22 19:33 26.81248 51.92093 33851 ft 427 kts 297°
2026-04-22 19:33 26.84489 51.86510 33853 ft 426 kts 297°
2026-04-22 19:34 26.87709 51.80955 33852 ft 426 kts 297°
2026-04-22 19:34 26.90927 51.75396 33854 ft 426 kts 297°
2026-04-22 19:35 26.94165 51.69797 33863 ft 428 kts 297°
2026-04-22 19:35 26.96860 51.65130 33860 ft 428 kts 297°
2026-04-22 19:36 27.00619 51.58615 33861 ft 428 kts 297°
2026-04-22 19:36 27.03847 51.53012 33849 ft 428 kts 297°
2026-04-22 19:37 27.07075 51.47400 33865 ft 429 kts 297°
2026-04-22 19:37 27.10316 51.41761 33872 ft 430 kts 296°
2026-04-22 19:38 27.13549 51.36127 33862 ft 430 kts 296°
2026-04-22 19:38 27.16786 51.30480 33859 ft 430 kts 296°
2026-04-22 19:39 27.20019 51.24833 33860 ft 430 kts 296°
2026-04-22 19:39 27.23269 51.19147 33877 ft 431 kts 296°
2026-04-22 19:40 27.26491 51.13505 33867 ft 431 kts 296°
2026-04-22 19:40 27.29729 51.07826 33863 ft 431 kts 296°
2026-04-22 19:41 27.32970 51.02136 33869 ft 431 kts 296°
2026-04-22 19:41 27.36186 50.96481 33874 ft 431 kts 296°
2026-04-22 19:42 27.39419 50.90791 33874 ft 430 kts 296°
2026-04-22 19:42 27.42614 50.85160 33862 ft 428 kts 296°
2026-04-22 19:43 27.47412 50.76690 33880 ft 426 kts 296°
2026-04-22 19:43 27.50590 50.71068 33877 ft 426 kts 296°
2026-04-22 19:44 27.53764 50.65446 33883 ft 427 kts 296°
2026-04-22 19:44 27.56954 50.59789 33884 ft 428 kts 296°
2026-04-22 19:45 27.60149 50.54116 33883 ft 429 kts 296°
2026-04-22 19:45 27.63349 50.48428 33886 ft 430 kts 296°
2026-04-22 19:46 27.66543 50.42743 33901 ft 430 kts 296°
2026-04-22 19:46 27.69739 50.37049 33892 ft 429 kts 296°
2026-04-22 19:47 27.72930 50.31357 33887 ft 426 kts 296°
2026-04-22 19:47 27.76085 50.25719 33888 ft 424 kts 295°
2026-04-22 19:48 27.79224 50.20102 33892 ft 423 kts 295°
2026-04-22 19:48 27.82361 50.14480 33907 ft 423 kts 295°
2026-04-22 19:49 27.85494 50.08858 33901 ft 422 kts 295°
2026-04-22 19:49 27.88611 50.03259 33896 ft 421 kts 295°
2026-04-22 19:50 27.91724 49.97659 33898 ft 420 kts 295°
2026-04-22 19:50 27.94835 49.92055 33927 ft 420 kts 295°
2026-04-22 19:51 27.97930 49.86473 33910 ft 422 kts 295°
2026-04-22 19:51 28.01048 49.80841 33902 ft 423 kts 295°
2026-04-22 19:52 28.04165 49.75205 33902 ft 423 kts 295°
2026-04-22 19:52 28.07302 49.69528 33901 ft 423 kts 295°
2026-04-22 19:53 28.10420 49.63874 33894 ft 424 kts 295°
2026-04-22 19:53 28.13541 49.58209 33899 ft 425 kts 295°
2026-04-22 19:54 28.16660 49.52539 33917 ft 425 kts 295°
2026-04-22 19:54 28.19778 49.46864 33918 ft 425 kts 295°
2026-04-22 19:55 28.22889 49.41194 33928 ft 424 kts 295°
2026-04-22 19:55 28.26023 49.35473 33915 ft 425 kts 295°
2026-04-22 19:56 28.28618 49.30730 33916 ft 426 kts 295°
2026-04-22 19:56 28.32267 49.24052 33919 ft 427 kts 295°
2026-04-22 19:57 28.35374 49.18360 33921 ft 427 kts 295°
2026-04-22 19:57 28.38183 49.13684 33921 ft 438 kts 304°
2026-04-22 19:58 28.41134 49.10454 34151 ft 448 kts 311°
2026-04-22 19:58 28.42763 49.08970 34333 ft 451 kts 314°
2026-04-22 19:58 28.45436 49.07008 34590 ft 460 kts 322°
2026-04-22 19:58 28.48264 49.05313 34813 ft 462 kts 323°
2026-04-22 19:59 28.51139 49.03651 35035 ft 462 kts 323°
2026-04-22 20:00 28.68203 48.93742 35934 ft 452 kts 322°
2026-04-22 20:01 28.73734 48.90467 35946 ft 448 kts 322°
2026-04-22 20:01 28.79271 48.87178 35935 ft 446 kts 322°
2026-04-22 20:02 28.84766 48.83912 35934 ft 446 kts 322°
2026-04-22 20:02 28.90256 48.80646 35983 ft 447 kts 322°
2026-04-22 20:03 28.95789 48.77351 35949 ft 449 kts 322°
2026-04-22 20:03 29.01325 48.74052 35943 ft 450 kts 322°
2026-04-22 20:04 29.06892 48.70732 35936 ft 452 kts 322°
2026-04-22 20:04 29.12463 48.67406 35939 ft 453 kts 322°
2026-04-22 20:05 29.18053 48.64064 35923 ft 453 kts 322°
2026-04-22 20:05 29.23641 48.60720 35934 ft 453 kts 322°
2026-04-22 20:06 29.29227 48.57371 35948 ft 453 kts 322°
2026-04-22 20:06 29.34803 48.54025 35952 ft 453 kts 322°
2026-04-22 20:07 29.40398 48.50664 35943 ft 453 kts 322°
2026-04-22 20:07 29.45956 48.47319 35953 ft 453 kts 322°
2026-04-22 20:08 29.51521 48.43967 35954 ft 453 kts 322°
2026-04-22 20:08 29.57087 48.40610 35949 ft 452 kts 322°
2026-04-22 20:09 29.62688 48.37227 35965 ft 453 kts 322°
2026-04-22 20:09 29.68251 48.33862 35956 ft 453 kts 322°
2026-04-22 20:10 29.73832 48.30482 35948 ft 454 kts 322°
2026-04-22 20:10 29.79421 48.27094 35975 ft 455 kts 322°
2026-04-22 20:11 29.85025 48.23692 35964 ft 456 kts 322°
2026-04-22 20:11 29.90626 48.20288 35954 ft 456 kts 322°
2026-04-22 20:12 29.96247 48.16868 35976 ft 457 kts 322°
2026-04-22 20:12 30.01871 48.13441 35967 ft 457 kts 322°
2026-04-22 20:13 30.07484 48.10016 35963 ft 458 kts 322°
2026-04-22 20:13 30.13130 48.06568 35968 ft 458 kts 322°
2026-04-22 20:14 30.18725 48.03145 35963 ft 458 kts 323°
2026-04-22 20:14 30.24380 47.99682 35958 ft 458 kts 322°
2026-04-22 20:15 30.29978 47.96249 35976 ft 458 kts 322°
2026-04-22 20:15 30.35620 47.92783 35968 ft 458 kts 323°
2026-04-22 20:16 30.41237 47.89329 35964 ft 458 kts 323°
2026-04-22 20:16 30.46869 47.85862 35984 ft 458 kts 323°
2026-04-22 20:17 30.52500 47.82390 35971 ft 459 kts 323°
2026-04-22 20:17 30.58129 47.78914 35962 ft 459 kts 323°
2026-04-22 20:18 30.63797 47.75411 35981 ft 460 kts 323°
2026-04-22 20:18 30.69424 47.71926 35979 ft 461 kts 323°
2026-04-22 20:19 30.75093 47.68413 35963 ft 462 kts 323°
2026-04-22 20:19 30.80785 47.64881 35967 ft 462 kts 323°
2026-04-22 20:20 30.86446 47.61363 35970 ft 462 kts 323°
2026-04-22 20:20 30.92119 47.57833 35960 ft 462 kts 323°
2026-04-22 20:21 30.97772 47.54310 35987 ft 461 kts 323°
2026-04-22 20:21 31.03414 47.50789 35975 ft 462 kts 323°
2026-04-22 20:22 31.09096 47.47238 35966 ft 462 kts 323°
2026-04-22 20:22 31.14753 47.43699 35981 ft 462 kts 323°
2026-04-22 20:23 31.20415 47.40151 35969 ft 463 kts 323°
2026-04-22 20:23 31.26079 47.36597 35962 ft 463 kts 323°
2026-04-22 20:24 31.31740 47.33040 35984 ft 464 kts 323°
2026-04-22 20:24 31.37426 47.29462 35972 ft 464 kts 323°
2026-04-22 20:25 31.43114 47.25878 35970 ft 465 kts 323°
2026-04-22 20:25 31.48810 47.22285 35978 ft 466 kts 323°
2026-04-22 20:26 31.54513 47.18682 35970 ft 466 kts 323°
2026-04-22 20:26 31.60234 47.15063 35962 ft 465 kts 323°
2026-04-22 20:27 31.65920 47.11461 35975 ft 465 kts 323°
2026-04-22 20:27 31.71600 47.07857 35972 ft 465 kts 323°
2026-04-22 20:28 31.77291 47.04242 35972 ft 464 kts 323°
2026-04-22 20:28 31.82936 47.00650 35975 ft 464 kts 323°
2026-04-22 20:29 31.88637 46.97018 35979 ft 463 kts 323°
2026-04-22 20:29 31.94268 46.93425 35994 ft 462 kts 323°
2026-04-22 20:30 31.99919 46.89814 35986 ft 462 kts 322°
2026-04-22 20:30 32.05601 46.86178 35980 ft 462 kts 322°
2026-04-22 20:31 32.11255 46.82555 36007 ft 463 kts 323°
2026-04-22 20:31 32.16903 46.78930 35996 ft 463 kts 323°
2026-04-22 20:32 32.22557 46.75297 35983 ft 463 kts 322°
2026-04-22 20:32 32.28207 46.71661 35989 ft 463 kts 323°
2026-04-22 20:33 32.33865 46.68016 35984 ft 463 kts 323°
2026-04-22 20:33 32.39515 46.64369 35994 ft 463 kts 323°
2026-04-22 20:34 32.45131 46.60740 35989 ft 463 kts 322°
2026-04-22 20:34 32.50793 46.57075 35988 ft 463 kts 322°
2026-04-22 20:35 32.56445 46.53412 35987 ft 463 kts 322°
2026-04-22 20:35 32.62125 46.49724 36004 ft 464 kts 323°
2026-04-22 20:36 32.67768 46.46056 35997 ft 464 kts 323°
2026-04-22 20:36 32.73441 46.42363 36014 ft 465 kts 323°
2026-04-22 20:37 32.79097 46.38676 36006 ft 465 kts 323°
2026-04-22 20:37 32.84765 46.34975 36002 ft 465 kts 323°
2026-04-22 20:38 32.90424 46.31275 36022 ft 466 kts 323°
2026-04-22 20:38 32.96104 46.27556 36018 ft 466 kts 323°
2026-04-22 20:39 33.01773 46.23838 36018 ft 466 kts 323°
2026-04-22 20:39 33.07455 46.20106 36017 ft 467 kts 323°
2026-04-22 20:40 33.13141 46.16367 36010 ft 467 kts 323°
2026-04-22 20:40 33.18837 46.12615 36039 ft 467 kts 323°
2026-04-22 20:41 33.24514 46.08869 36031 ft 468 kts 323°
2026-04-22 20:41 33.30234 46.05090 36030 ft 468 kts 323°
2026-04-22 20:42 33.35920 46.01328 36047 ft 469 kts 324°
2026-04-22 20:42 33.41626 45.97546 36036 ft 469 kts 324°
2026-04-22 20:43 33.47326 45.93763 36055 ft 469 kts 324°
2026-04-22 20:43 33.53015 45.89982 36037 ft 469 kts 324°
2026-04-22 20:44 33.58728 45.86179 36046 ft 470 kts 324°
2026-04-22 20:44 33.64472 45.82348 36041 ft 470 kts 324°
2026-04-22 20:45 33.70172 45.78542 36037 ft 471 kts 324°
2026-04-22 20:45 33.75893 45.74717 36029 ft 471 kts 324°
2026-04-22 20:46 33.84474 45.68967 36028 ft 471 kts 324°
2026-04-22 20:46 33.90188 45.65131 36030 ft 471 kts 324°
2026-04-22 20:47 33.95883 45.61302 36023 ft 470 kts 324°
2026-04-22 20:47 34.01629 45.57432 36019 ft 470 kts 324°
2026-04-22 20:48 34.07336 45.53583 36028 ft 470 kts 324°
2026-04-22 20:48 34.13034 45.49733 36020 ft 471 kts 324°
2026-04-22 20:49 34.18739 45.45873 36015 ft 471 kts 324°
2026-04-22 20:49 34.24456 45.41999 36017 ft 471 kts 324°
2026-04-22 20:50 34.29202 45.38778 36018 ft 471 kts 324°
2026-04-22 20:50 34.34918 45.34894 36034 ft 471 kts 324°
2026-04-22 20:51 34.40651 45.30992 36020 ft 471 kts 324°
2026-04-22 20:51 34.46357 45.27101 36017 ft 471 kts 324°
2026-04-22 20:52 34.52084 45.23190 36023 ft 471 kts 324°
2026-04-22 20:52 34.57753 45.19313 36018 ft 471 kts 324°
2026-04-22 20:53 34.63468 45.15398 36036 ft 471 kts 324°
2026-04-22 20:53 34.69201 45.11464 36016 ft 471 kts 324°
2026-04-22 20:54 34.74917 45.07537 36029 ft 471 kts 324°
2026-04-22 20:54 34.80600 45.03624 36029 ft 472 kts 324°
2026-04-22 20:55 34.86312 44.99686 36037 ft 472 kts 324°
2026-04-22 20:55 34.92022 44.95744 36028 ft 472 kts 324°
2026-04-22 20:56 34.97718 44.91804 36042 ft 472 kts 324°
2026-04-22 20:56 35.03404 44.87865 36036 ft 472 kts 324°
2026-04-22 20:57 35.09107 44.83908 36041 ft 471 kts 324°
2026-04-22 20:57 35.14844 44.79920 36046 ft 471 kts 324°
2026-04-22 20:58 35.20531 44.75962 36038 ft 471 kts 324°
2026-04-22 20:58 35.26199 44.72008 36046 ft 472 kts 324°
2026-04-22 20:59 35.31936 44.68001 36044 ft 472 kts 324°
2026-04-22 20:59 35.37633 44.64016 36042 ft 472 kts 324°
2026-04-22 21:00 35.43298 44.60047 36052 ft 472 kts 324°
2026-04-22 21:00 35.49029 44.56023 36054 ft 473 kts 324°
2026-04-22 21:01 35.54731 44.52015 36042 ft 473 kts 324°
2026-04-22 21:01 35.60424 44.48006 36047 ft 472 kts 324°
2026-04-22 21:02 35.66119 44.43989 36035 ft 472 kts 324°
2026-04-22 21:02 35.71827 44.39956 36060 ft 472 kts 324°
2026-04-22 21:03 35.77497 44.35943 36043 ft 472 kts 324°
2026-04-22 21:03 35.83182 44.31913 36043 ft 472 kts 324°
2026-04-22 21:04 35.88864 44.27879 36052 ft 472 kts 324°
2026-04-22 21:04 35.94550 44.23834 36047 ft 472 kts 324°
2026-04-22 21:05 36.00227 44.19789 36051 ft 472 kts 324°
2026-04-22 21:05 36.05908 44.15734 36050 ft 472 kts 324°
2026-04-22 21:06 36.11595 44.11669 36049 ft 472 kts 324°
2026-04-22 21:06 36.17273 44.07603 36050 ft 472 kts 324°
2026-04-22 21:07 36.22953 44.03529 36020 ft 472 kts 324°
2026-04-22 21:07 36.28625 43.99453 36045 ft 472 kts 324°
2026-04-22 21:08 36.34289 43.95376 36025 ft 472 kts 324°
2026-04-22 21:08 36.39969 43.91282 36028 ft 472 kts 324°
2026-04-22 21:09 36.45647 43.87180 36040 ft 472 kts 324°
2026-04-22 21:09 36.51303 43.83089 36040 ft 472 kts 324°
2026-04-22 21:10 36.56956 43.78992 36076 ft 472 kts 324°
2026-04-22 21:10 36.62623 43.74878 36051 ft 472 kts 324°
2026-04-22 21:11 36.68312 43.70742 36063 ft 472 kts 324°
2026-04-22 21:11 36.73988 43.66607 36063 ft 472 kts 324°
2026-04-22 21:12 36.79637 43.62485 36068 ft 472 kts 324°
2026-04-22 21:12 36.85293 43.58351 36092 ft 471 kts 324°
2026-04-22 21:13 36.90956 43.54203 36093 ft 472 kts 324°
2026-04-22 21:13 36.96603 43.50061 36082 ft 472 kts 324°
2026-04-22 21:14 37.02276 43.45892 36103 ft 473 kts 324°
2026-04-22 21:14 37.07946 43.41718 36094 ft 473 kts 324°
2026-04-22 21:15 37.13627 43.37530 36104 ft 473 kts 324°
2026-04-22 21:15 37.19269 43.33362 36098 ft 473 kts 324°
2026-04-22 21:16 37.24953 43.29155 36107 ft 473 kts 324°
2026-04-22 21:16 37.30582 43.24971 36104 ft 472 kts 322°
2026-04-22 21:17 37.35428 43.19604 36100 ft 458 kts 305°
2026-04-22 21:17 37.38849 43.12969 36105 ft 451 kts 294°
2026-04-22 21:18 37.41739 43.05999 36112 ft 451 kts 294°
2026-04-22 21:18 37.44672 42.98988 36101 ft 452 kts 294°
2026-04-22 21:19 37.47616 42.92022 36094 ft 451 kts 294°
2026-04-22 21:19 37.50573 42.85037 36109 ft 452 kts 294°
2026-04-22 21:20 37.53518 42.78060 36095 ft 453 kts 294°
2026-04-22 21:20 37.56472 42.71043 36091 ft 453 kts 294°
2026-04-22 21:21 37.59407 42.64062 36089 ft 452 kts 294°
2026-04-22 21:21 37.62372 42.57039 36080 ft 452 kts 294°
2026-04-22 21:22 37.65312 42.50071 36083 ft 451 kts 294°
2026-04-22 21:22 37.68253 42.43081 36079 ft 451 kts 294°
2026-04-22 21:23 37.71186 42.36088 36068 ft 450 kts 294°
2026-04-22 21:23 37.74122 42.29072 36062 ft 450 kts 294°
2026-04-22 21:24 37.77038 42.22096 36065 ft 451 kts 294°
2026-04-22 21:24 37.79957 42.15087 36057 ft 452 kts 294°
2026-04-22 21:25 37.82892 42.08026 36046 ft 452 kts 294°
2026-04-22 21:25 37.85789 42.01046 36058 ft 451 kts 294°
2026-04-22 21:26 37.88714 41.93979 36057 ft 452 kts 294°
2026-04-22 21:26 37.91956 41.87150 36049 ft 457 kts 302°
2026-04-22 21:27 37.96084 41.80920 36049 ft 461 kts 307°
2026-04-22 21:27 38.00350 41.74875 36045 ft 462 kts 307°
2026-04-22 21:28 38.04610 41.68788 36045 ft 461 kts 307°
2026-04-22 21:28 38.08841 41.62697 36033 ft 461 kts 307°
2026-04-22 21:29 38.13072 41.56582 36052 ft 460 kts 307°
2026-04-22 21:29 38.17274 41.50495 36026 ft 459 kts 307°
2026-04-22 21:30 38.21465 41.44415 36024 ft 458 kts 306°
2026-04-22 21:30 38.25667 41.38309 36040 ft 457 kts 307°
2026-04-22 21:31 38.29841 41.32231 36036 ft 458 kts 306°
2026-04-22 21:31 38.34021 41.26134 36026 ft 457 kts 306°
2026-04-22 21:32 38.38204 41.20018 36033 ft 457 kts 306°
2026-04-22 21:32 38.42373 41.13912 36029 ft 458 kts 306°
2026-04-22 21:33 38.46571 41.07752 36034 ft 458 kts 306°
2026-04-22 21:33 38.50680 41.01539 36037 ft 458 kts 305°
2026-04-22 21:34 38.54744 40.95299 36031 ft 458 kts 305°
2026-04-22 21:34 38.58829 40.89043 36029 ft 457 kts 305°
2026-04-22 21:35 38.62882 40.82838 36039 ft 457 kts 305°
2026-04-22 21:35 38.66968 40.76639 36036 ft 456 kts 306°
2026-04-22 21:36 38.71073 40.70444 36034 ft 457 kts 306°
2026-04-22 21:36 38.75181 40.64230 36034 ft 458 kts 306°
2026-04-22 21:37 38.79286 40.58000 36029 ft 458 kts 306°
2026-04-22 21:37 38.83398 40.51743 36022 ft 457 kts 306°
2026-04-22 21:38 38.87484 40.45515 36019 ft 456 kts 306°
2026-04-22 21:38 38.91543 40.39314 36020 ft 455 kts 306°
2026-04-22 21:39 38.95628 40.33061 36019 ft 455 kts 306°
2026-04-22 21:39 38.99683 40.26842 36022 ft 455 kts 306°
2026-04-22 21:40 39.03725 40.20631 36016 ft 453 kts 306°
2026-04-22 21:40 39.07783 40.14383 36005 ft 453 kts 306°
2026-04-22 21:41 39.11807 40.08175 36012 ft 453 kts 306°
2026-04-22 21:41 39.15834 40.01950 36004 ft 453 kts 306°
2026-04-22 21:42 39.19874 39.95695 35994 ft 454 kts 306°
2026-04-22 21:42 39.23902 39.89452 36009 ft 453 kts 306°
2026-04-22 21:43 39.27931 39.83195 35993 ft 454 kts 306°
2026-04-22 21:43 39.31947 39.76944 35994 ft 454 kts 306°
2026-04-22 21:44 39.35309 39.71702 35994 ft 453 kts 306°
2026-04-22 21:44 39.39313 39.65448 35989 ft 453 kts 306°
2026-04-22 21:45 39.43339 39.59144 35979 ft 454 kts 306°
2026-04-22 21:45 39.47365 39.52829 35985 ft 455 kts 306°
2026-04-22 21:46 39.51378 39.46524 35969 ft 456 kts 306°
2026-04-22 21:46 39.55390 39.40102 35965 ft 456 kts 305°
2026-04-22 21:47 39.59345 39.33704 35988 ft 455 kts 305°
2026-04-22 21:47 39.63284 39.27335 35949 ft 455 kts 305°
2026-04-22 21:48 39.67225 39.20957 35944 ft 454 kts 305°
2026-04-22 21:48 39.71172 39.14561 35939 ft 454 kts 305°
2026-04-22 21:49 39.75136 39.08170 35936 ft 453 kts 306°
2026-04-22 21:49 39.79127 39.01826 35923 ft 453 kts 306°
2026-04-22 21:50 39.83086 38.95521 35921 ft 452 kts 306°
2026-04-22 21:50 39.87049 38.89187 35914 ft 451 kts 305°
2026-04-22 21:51 39.91014 38.82828 35914 ft 450 kts 305°
2026-04-22 21:52 39.96927 38.73317 35912 ft 450 kts 305°
2026-04-22 21:52 40.00847 38.66998 35900 ft 449 kts 305°
2026-04-22 21:53 40.04769 38.60663 35888 ft 449 kts 305°
2026-04-22 21:53 40.08691 38.54315 35893 ft 448 kts 305°
2026-04-22 21:54 40.12605 38.47966 35902 ft 448 kts 304°
2026-04-22 21:54 40.16507 38.41626 35885 ft 448 kts 304°
2026-04-22 21:55 40.20388 38.35304 35890 ft 447 kts 304°
2026-04-22 21:55 40.24267 38.28974 35902 ft 446 kts 304°
2026-04-22 21:56 40.28150 38.22625 35873 ft 444 kts 304°
2026-04-22 21:56 40.31811 38.16188 35886 ft 439 kts 297°
2026-04-22 21:57 40.34615 38.09167 35888 ft 434 kts 289°
2026-04-22 21:57 40.36816 38.01797 35897 ft 433 kts 288°
2026-04-22 21:58 40.38993 37.94449 35918 ft 433 kts 288°
2026-04-22 21:58 40.41190 37.87087 35925 ft 434 kts 289°
2026-04-22 21:59 40.43399 37.79695 35933 ft 435 kts 288°
2026-04-22 21:59 40.45599 37.72317 35927 ft 435 kts 288°
2026-04-22 22:00 40.47802 37.64908 35945 ft 434 kts 288°
2026-04-22 22:00 40.49979 37.57568 35958 ft 433 kts 288°
2026-04-22 22:01 40.52172 37.50155 35950 ft 433 kts 288°
2026-04-22 22:01 40.54343 37.42793 35939 ft 433 kts 288°
2026-04-22 22:02 40.56515 37.35409 35956 ft 432 kts 288°
2026-04-22 22:02 40.58679 37.28028 35955 ft 432 kts 288°
2026-04-22 22:03 40.60833 37.20664 35970 ft 432 kts 288°
2026-04-22 22:03 40.62980 37.13302 35977 ft 432 kts 288°
2026-04-22 22:04 40.65136 37.05886 35977 ft 433 kts 288°
2026-04-22 22:04 40.67276 36.98506 35978 ft 433 kts 288°
2026-04-22 22:05 40.69421 36.91091 35990 ft 433 kts 287°
2026-04-22 22:05 40.71554 36.83693 35993 ft 433 kts 287°
2026-04-22 22:06 40.73691 36.76255 36003 ft 433 kts 287°
2026-04-22 22:06 40.75817 36.68846 36040 ft 432 kts 287°
2026-04-22 22:07 40.77948 36.61409 36022 ft 432 kts 287°
2026-04-22 22:07 40.80076 36.53988 36017 ft 432 kts 287°
2026-04-22 22:08 40.82195 36.46582 36011 ft 432 kts 287°
2026-04-22 22:08 40.84304 36.39181 36026 ft 431 kts 287°
2026-04-22 22:09 40.86406 36.31784 36017 ft 429 kts 287°
2026-04-22 22:09 40.88494 36.24415 36012 ft 429 kts 287°
2026-04-22 22:10 40.90580 36.17032 36015 ft 429 kts 287°
2026-04-22 22:10 40.92658 36.09658 36013 ft 429 kts 286°
2026-04-22 22:11 40.94721 36.02264 35998 ft 429 kts 286°
2026-04-22 22:11 40.96746 35.94854 35989 ft 429 kts 286°
2026-04-22 22:12 40.98774 35.87432 35990 ft 428 kts 286°
2026-04-22 22:12 41.00822 35.80013 36007 ft 428 kts 286°
2026-04-22 22:13 41.02879 35.72614 35997 ft 428 kts 286°
2026-04-22 22:13 41.04932 35.65209 35989 ft 428 kts 286°
2026-04-22 22:14 41.06971 35.57814 35984 ft 427 kts 285°
2026-04-22 22:14 41.08995 35.50450 35984 ft 428 kts 285°
2026-04-22 22:15 41.11028 35.43030 35976 ft 428 kts 285°
2026-04-22 22:15 41.13057 35.35601 35984 ft 428 kts 285°
2026-04-22 22:16 41.15083 35.28164 35980 ft 429 kts 285°
2026-04-22 22:16 41.17107 35.20713 35984 ft 430 kts 285°
2026-04-22 22:17 41.19128 35.13245 35987 ft 430 kts 285°
2026-04-22 22:17 41.21147 35.05767 35987 ft 430 kts 285°
2026-04-22 22:18 41.23152 34.98321 35999 ft 430 kts 285°
2026-04-22 22:18 41.25170 34.90799 35997 ft 430 kts 285°
2026-04-22 22:19 41.27174 34.83312 35992 ft 430 kts 285°
2026-04-22 22:19 41.29179 34.75800 35989 ft 430 kts 285°
2026-04-22 22:20 41.31163 34.68341 36000 ft 430 kts 285°
2026-04-22 22:20 41.33153 34.60843 36008 ft 430 kts 285°
2026-04-22 22:21 41.35140 34.53327 36007 ft 431 kts 284°
2026-04-22 22:21 41.37121 34.45812 36023 ft 432 kts 284°
2026-04-22 22:22 41.39107 34.38258 36017 ft 432 kts 284°
2026-04-22 22:22 41.41093 34.30656 36041 ft 434 kts 284°
2026-04-22 22:23 41.43046 34.23062 36035 ft 437 kts 284°
2026-04-22 22:23 41.45028 34.15341 36037 ft 440 kts 284°
2026-04-22 22:24 41.47010 34.07634 36048 ft 441 kts 284°
2026-04-22 22:24 41.49007 33.99878 36061 ft 442 kts 285°
2026-04-22 22:25 41.50997 33.92133 36062 ft 441 kts 285°
2026-04-22 22:25 41.52980 33.84380 36065 ft 440 kts 285°
2026-04-22 22:26 41.54946 33.76666 36061 ft 439 kts 285°
2026-04-22 22:26 41.56896 33.68988 36061 ft 430 kts 286°
2026-04-22 22:27 41.58783 33.61541 36067 ft 424 kts 286°
2026-04-22 22:27 41.60652 33.54057 36068 ft 426 kts 285°
2026-04-22 22:28 41.62530 33.46510 36069 ft 428 kts 286°
2026-04-22 22:28 41.64436 33.38980 36075 ft 428 kts 285°
2026-04-22 22:29 41.66329 33.31465 36071 ft 427 kts 285°
2026-04-22 22:29 41.68211 33.23952 36069 ft 425 kts 285°
2026-04-22 22:30 41.70076 33.16480 36076 ft 424 kts 285°
2026-04-22 22:30 41.71944 33.08975 36077 ft 424 kts 284°
2026-04-22 22:31 41.73795 33.01505 36074 ft 424 kts 284°
2026-04-22 22:31 41.75623 32.93996 36068 ft 424 kts 284°
2026-04-22 22:32 41.77440 32.86495 36070 ft 424 kts 284°
2026-04-22 22:32 41.79257 32.78987 36078 ft 424 kts 284°
2026-04-22 22:33 41.81087 32.71450 36070 ft 427 kts 284°
2026-04-22 22:33 41.82946 32.63903 36065 ft 428 kts 284°
2026-04-22 22:34 41.84818 32.56276 36069 ft 429 kts 284°
2026-04-22 22:34 41.86668 32.48700 36062 ft 431 kts 284°
2026-04-22 22:35 41.88506 32.41009 36070 ft 434 kts 283°
2026-04-22 22:35 41.90316 32.33256 36069 ft 437 kts 284°
2026-04-22 22:36 41.91870 32.26776 36068 ft 439 kts 284°
2026-04-22 22:36 41.93737 32.18950 36062 ft 440 kts 284°
2026-04-22 22:37 41.95597 32.11109 36058 ft 439 kts 284°
2026-04-22 22:37 41.97439 32.03316 36062 ft 438 kts 284°
2026-04-22 22:38 41.99268 31.95554 36061 ft 437 kts 284°
2026-04-22 22:38 42.01095 31.87776 36069 ft 436 kts 284°
2026-04-22 22:39 42.02925 31.79949 36066 ft 437 kts 284°
2026-04-22 22:39 42.04740 31.72162 36065 ft 439 kts 284°
2026-04-22 22:40 42.06563 31.64310 36068 ft 440 kts 284°
2026-04-22 22:40 42.08383 31.56446 36080 ft 441 kts 284°
2026-04-22 22:41 42.10210 31.48528 36072 ft 444 kts 284°
2026-04-22 22:41 42.12042 31.40561 36070 ft 445 kts 284°
2026-04-22 22:42 42.13873 31.32588 36070 ft 447 kts 284°
2026-04-22 22:42 42.15707 31.24583 36077 ft 447 kts 284°
2026-04-22 22:43 42.17528 31.16611 36066 ft 447 kts 284°
2026-04-22 22:43 42.19348 31.08614 36068 ft 447 kts 284°
2026-04-22 22:44 42.21174 31.00558 36069 ft 447 kts 284°
2026-04-22 22:44 42.22981 30.92555 36079 ft 446 kts 284°
2026-04-22 22:45 42.24780 30.84556 36066 ft 446 kts 284°
2026-04-22 22:45 42.26570 30.76572 36068 ft 445 kts 284°
2026-04-22 22:46 42.28355 30.68581 36067 ft 444 kts 284°
2026-04-22 22:46 42.30135 30.60580 36084 ft 444 kts 284°
2026-04-22 22:47 42.31901 30.52613 36072 ft 444 kts 284°
2026-04-22 22:47 42.33666 30.44622 36073 ft 444 kts 284°
2026-04-22 22:48 42.35425 30.36629 36071 ft 444 kts 284°
2026-04-22 22:48 42.37175 30.28647 36080 ft 444 kts 284°
2026-04-22 22:49 42.38935 30.20592 36068 ft 444 kts 284°
2026-04-22 22:49 42.40677 30.12583 36071 ft 444 kts 284°
2026-04-22 22:50 42.42419 30.04549 36071 ft 445 kts 284°
2026-04-22 22:50 42.44143 29.96566 36076 ft 445 kts 284°
2026-04-22 22:51 42.45886 29.88471 36075 ft 446 kts 284°
2026-04-22 22:51 42.47327 29.80323 36077 ft 445 kts 281°
2026-04-22 22:52 42.48619 29.72140 36072 ft 445 kts 280°
2026-04-22 22:52 42.49909 29.63934 36080 ft 446 kts 280°
2026-04-22 22:53 42.51207 29.55720 36072 ft 446 kts 280°
2026-04-22 22:53 42.52503 29.47525 36071 ft 447 kts 280°
2026-04-22 22:54 42.53805 29.39253 36075 ft 447 kts 280°
2026-04-22 22:54 42.55095 29.31021 36083 ft 447 kts 280°
2026-04-22 22:55 42.56376 29.22801 36078 ft 448 kts 280°
2026-04-22 22:55 42.58300 29.10379 36076 ft 448 kts 280°
2026-04-22 22:56 42.59572 29.02117 36075 ft 449 kts 280°
2026-04-22 22:56 42.60841 28.93826 36073 ft 449 kts 280°
2026-04-22 22:57 42.62106 28.85528 36076 ft 449 kts 280°
2026-04-22 22:57 42.63364 28.77227 36076 ft 449 kts 280°
2026-04-22 22:58 42.64616 28.68923 36073 ft 449 kts 280°
2026-04-22 22:58 42.65862 28.60611 36083 ft 449 kts 280°
2026-04-22 22:59 42.67100 28.52315 36083 ft 449 kts 280°
2026-04-22 22:59 42.68334 28.44001 36070 ft 449 kts 280°
2026-04-22 23:00 42.69564 28.35670 36080 ft 449 kts 280°
2026-04-22 23:00 42.70790 28.27319 36081 ft 449 kts 280°
2026-04-22 23:01 42.72005 28.19001 36073 ft 450 kts 280°
2026-04-22 23:01 42.73220 28.10637 36075 ft 451 kts 280°
2026-04-22 23:02 42.74431 28.02260 36074 ft 451 kts 280°
2026-04-22 23:02 42.75633 27.93895 36074 ft 452 kts 280°
2026-04-22 23:03 42.76833 27.85500 36079 ft 452 kts 280°
2026-04-22 23:03 42.78028 27.77095 36076 ft 453 kts 280°
2026-04-22 23:04 42.79217 27.68683 36066 ft 454 kts 279°
2026-04-22 23:04 42.80402 27.60251 36086 ft 454 kts 279°
2026-04-22 23:05 42.81584 27.51795 36087 ft 455 kts 280°
2026-04-22 23:05 42.82763 27.43318 36076 ft 456 kts 279°
2026-04-22 23:06 42.83943 27.34777 36074 ft 457 kts 279°
2026-04-22 23:06 42.85114 27.26254 36068 ft 458 kts 279°
2026-04-22 23:07 42.86277 27.17741 36073 ft 459 kts 279°
2026-04-22 23:07 42.87435 27.09211 36064 ft 459 kts 279°
2026-04-22 23:08 42.88592 27.00651 36069 ft 460 kts 279°
2026-04-22 23:08 42.89745 26.92062 36077 ft 460 kts 279°
2026-04-22 23:09 42.90893 26.83454 36064 ft 461 kts 279°
2026-04-22 23:09 42.92032 26.74870 36075 ft 461 kts 279°
2026-04-22 23:10 42.93164 26.66284 36066 ft 461 kts 279°
2026-04-22 23:10 42.94292 26.57675 36071 ft 461 kts 279°
2026-04-22 23:11 42.95419 26.49020 36089 ft 462 kts 279°
2026-04-22 23:11 42.96534 26.40410 36072 ft 462 kts 279°
2026-04-22 23:12 42.97648 26.31748 36083 ft 463 kts 279°
2026-04-22 23:12 42.98755 26.23091 36084 ft 463 kts 279°
2026-04-22 23:13 42.99852 26.14461 36075 ft 464 kts 279°
2026-04-22 23:13 43.00952 26.05743 36071 ft 464 kts 279°
2026-04-22 23:14 43.02038 25.97087 36080 ft 465 kts 279°
2026-04-22 23:14 43.03129 25.88334 36070 ft 465 kts 279°
2026-04-22 23:15 43.04201 25.79674 36080 ft 465 kts 279°
2026-04-22 23:15 43.05278 25.70928 36081 ft 465 kts 279°
2026-04-22 23:16 43.06340 25.62240 36074 ft 465 kts 279°
2026-04-22 23:16 43.07404 25.53482 36072 ft 465 kts 279°
2026-04-22 23:17 43.08456 25.44761 36065 ft 465 kts 279°
2026-04-22 23:17 43.09503 25.36023 36063 ft 465 kts 279°
2026-04-22 23:18 43.10542 25.27288 36055 ft 465 kts 279°
2026-04-22 23:18 43.11571 25.18589 36061 ft 465 kts 279°
2026-04-22 23:19 43.12598 25.09846 36046 ft 465 kts 279°
2026-04-22 23:19 43.13621 25.01067 36051 ft 465 kts 279°
2026-04-22 23:20 43.14634 24.92327 36054 ft 465 kts 279°
2026-04-22 23:20 43.15639 24.83587 36047 ft 466 kts 279°
2026-04-22 23:21 43.16646 24.74775 36052 ft 466 kts 279°
2026-04-22 23:21 43.17636 24.66050 36054 ft 466 kts 279°
2026-04-22 23:22 43.18629 24.57231 36064 ft 467 kts 279°
2026-04-22 23:22 43.19606 24.48498 36057 ft 467 kts 279°
2026-04-22 23:23 43.20588 24.39651 36056 ft 467 kts 279°
2026-04-22 23:23 43.21557 24.30854 36053 ft 468 kts 279°
2026-04-22 23:24 43.22520 24.22058 36058 ft 469 kts 279°
2026-04-22 23:24 43.23486 24.13171 36056 ft 469 kts 279°
2026-04-22 23:25 43.24440 24.04316 36065 ft 470 kts 279°
2026-04-22 23:25 43.25389 23.95449 36062 ft 470 kts 279°
2026-04-22 23:26 43.26331 23.86572 36068 ft 471 kts 279°
2026-04-22 23:26 43.27109 23.79203 36076 ft 471 kts 279°
2026-04-22 23:27 43.28043 23.70288 36078 ft 471 kts 279°
2026-04-22 23:27 43.28968 23.61380 36084 ft 472 kts 279°
2026-04-22 23:28 43.30038 23.50999 36092 ft 472 kts 279°
2026-04-22 23:28 43.30799 23.43551 36076 ft 472 kts 279°
2026-04-22 23:29 43.31703 23.34642 36096 ft 471 kts 278°
2026-04-22 23:29 43.32601 23.25730 36096 ft 471 kts 279°
2026-04-22 23:30 43.33492 23.16810 36103 ft 471 kts 279°
2026-04-22 23:30 43.34371 23.07935 36105 ft 471 kts 279°
2026-04-22 23:31 43.35250 22.98991 36111 ft 471 kts 278°
2026-04-22 23:31 43.36118 22.90086 36113 ft 471 kts 279°
2026-04-22 23:32 43.36985 22.81139 36118 ft 472 kts 279°
2026-04-22 23:32 43.38333 22.72366 36115 ft 470 kts 288°
2026-04-22 23:33 43.40335 22.63821 36132 ft 470 kts 289°
2026-04-22 23:33 43.42353 22.55199 36129 ft 472 kts 289°
2026-04-22 23:34 43.44322 22.46649 36131 ft 472 kts 288°
2026-04-22 23:34 43.46287 22.38023 36123 ft 473 kts 288°
2026-04-22 23:35 43.48247 22.29369 36122 ft 473 kts 288°
2026-04-22 23:35 43.50200 22.20709 36141 ft 473 kts 288°
2026-04-22 23:36 43.52133 22.12111 36130 ft 472 kts 288°
2026-04-22 23:36 43.54069 22.03469 36119 ft 472 kts 288°
2026-04-22 23:37 43.55995 21.94831 36121 ft 471 kts 288°
2026-04-22 23:37 43.57914 21.86195 36135 ft 471 kts 288°
2026-04-22 23:38 43.59834 21.77522 36146 ft 471 kts 288°
2026-04-22 23:38 43.61730 21.68918 36123 ft 472 kts 288°
2026-04-22 23:39 43.63638 21.60223 36133 ft 472 kts 288°
2026-04-22 23:39 43.65530 21.51570 36135 ft 472 kts 288°
2026-04-22 23:40 43.67419 21.42891 36142 ft 472 kts 288°
2026-04-22 23:40 43.69300 21.34215 36139 ft 472 kts 288°
2026-04-22 23:41 43.71182 21.25502 36142 ft 472 kts 288°
2026-04-22 23:41 43.73049 21.16817 36148 ft 472 kts 288°
2026-04-22 23:42 43.74916 21.08100 36152 ft 472 kts 288°
2026-04-22 23:42 43.76770 20.99406 36152 ft 472 kts 288°
2026-04-22 23:43 43.78619 20.90693 36154 ft 472 kts 288°
2026-04-22 23:43 43.80465 20.81965 36167 ft 472 kts 288°
2026-04-22 23:44 43.82305 20.73229 36164 ft 473 kts 288°
2026-04-22 23:44 43.84143 20.64465 36175 ft 473 kts 288°
2026-04-22 23:45 43.85959 20.55764 36152 ft 473 kts 288°
2026-04-22 23:45 43.87781 20.47001 36159 ft 473 kts 288°
2026-04-22 23:46 43.89597 20.38226 36165 ft 473 kts 288°
2026-04-22 23:46 43.91404 20.29461 36172 ft 473 kts 288°
2026-04-22 23:47 43.93211 20.20655 36178 ft 474 kts 288°
2026-04-22 23:47 43.95010 20.11853 36190 ft 474 kts 288°
2026-04-22 23:48 43.96804 20.03035 36200 ft 475 kts 288°
2026-04-22 23:48 43.98582 19.94256 36200 ft 475 kts 288°
2026-04-22 23:49 44.00375 19.85366 36204 ft 476 kts 288°
2026-04-22 23:49 44.02148 19.76532 36206 ft 476 kts 288°
2026-04-22 23:50 44.03912 19.67706 36206 ft 476 kts 288°
2026-04-22 23:50 44.05678 19.58828 36205 ft 476 kts 288°
2026-04-22 23:51 44.07433 19.49971 36217 ft 476 kts 288°
2026-04-22 23:51 44.09185 19.41089 36216 ft 476 kts 288°
2026-04-22 23:52 44.10924 19.32227 36222 ft 476 kts 287°
2026-04-22 23:52 44.12658 19.23360 36205 ft 476 kts 287°
2026-04-22 23:53 44.14366 19.14422 36231 ft 476 kts 286°
2026-04-22 23:53 44.15891 19.05490 36233 ft 477 kts 285°
2026-04-22 23:54 44.17394 18.96441 36232 ft 477 kts 285°
2026-04-22 23:54 44.18902 18.87435 36224 ft 478 kts 285°
2026-04-22 23:55 44.20415 18.78449 36237 ft 478 kts 285°
2026-04-22 23:55 44.21926 18.69433 36234 ft 479 kts 285°
2026-04-22 23:56 44.23433 18.60395 36237 ft 479 kts 285°
2026-04-22 23:56 44.24929 18.51364 36243 ft 479 kts 285°
2026-04-22 23:57 44.26426 18.42283 36237 ft 480 kts 285°
2026-04-22 23:57 44.27912 18.33215 36233 ft 479 kts 285°
2026-04-22 23:58 44.29390 18.24160 36244 ft 479 kts 285°
2026-04-22 23:58 44.30860 18.15097 36228 ft 479 kts 285°
2026-04-22 23:59 44.32321 18.06026 36246 ft 479 kts 285°
2026-04-22 23:59 44.33775 17.96942 36240 ft 479 kts 285°
2026-04-23 00:00 44.35938 17.83359 36220 ft 479 kts 285°
2026-04-23 00:01 44.37428 17.74270 36243 ft 478 kts 288°
2026-04-23 00:01 44.39271 17.65371 36249 ft 478 kts 289°
2026-04-23 00:02 44.41178 17.56445 36253 ft 480 kts 289°
2026-04-23 00:02 44.43070 17.47444 36234 ft 482 kts 289°
2026-04-23 00:03 44.44934 17.38447 36246 ft 483 kts 289°
2026-04-23 00:03 44.46789 17.29440 36256 ft 483 kts 289°
2026-04-23 00:04 44.48650 17.20366 36257 ft 484 kts 289°
2026-04-23 00:04 44.50507 17.11278 36241 ft 484 kts 289°
2026-04-23 00:05 44.52350 17.02213 36256 ft 484 kts 289°
2026-04-23 00:05 44.54176 16.93200 36255 ft 483 kts 289°
2026-04-23 00:06 44.56016 16.84088 36274 ft 483 kts 289°
2026-04-23 00:06 44.57841 16.75038 36262 ft 482 kts 289°
2026-04-23 00:07 44.59654 16.66010 36259 ft 482 kts 289°
2026-04-23 00:07 44.61473 16.56909 36255 ft 482 kts 289°
2026-04-23 00:08 44.63275 16.47850 36253 ft 482 kts 288°
2026-04-23 00:08 44.65062 16.38824 36249 ft 482 kts 288°
2026-04-23 00:09 44.66859 16.29706 36253 ft 482 kts 288°
2026-04-23 00:09 44.68642 16.20615 36258 ft 483 kts 288°
2026-04-23 00:10 44.70415 16.11533 36262 ft 484 kts 288°
2026-04-23 00:10 44.72193 16.02385 36259 ft 483 kts 288°
2026-04-23 00:11 44.73954 15.93277 36273 ft 483 kts 288°
2026-04-23 00:11 44.75703 15.84194 36267 ft 483 kts 288°
2026-04-23 00:12 44.77455 15.75048 36268 ft 483 kts 288°
2026-04-23 00:12 44.79193 15.65927 36259 ft 482 kts 288°
2026-04-23 00:13 44.80923 15.56800 36266 ft 481 kts 288°
2026-04-23 00:13 44.82640 15.47698 36274 ft 482 kts 288°
2026-04-23 00:14 44.84349 15.38598 36268 ft 482 kts 288°
2026-04-23 00:14 44.86057 15.29460 36246 ft 482 kts 288°
2026-04-23 00:15 44.87763 15.20282 36265 ft 482 kts 288°
2026-04-23 00:15 44.89444 15.11200 36259 ft 482 kts 288°
2026-04-23 00:16 44.91138 15.02005 36260 ft 482 kts 288°
2026-04-23 00:16 44.92811 14.92875 36252 ft 482 kts 288°
2026-04-23 00:17 44.94483 14.83709 36237 ft 482 kts 287°
2026-04-23 00:17 44.96143 14.74557 36244 ft 482 kts 287°
2026-04-23 00:18 44.97798 14.65388 36200 ft 482 kts 287°
2026-04-23 00:18 44.99440 14.56248 36225 ft 481 kts 287°
2026-04-23 00:19 45.01077 14.47090 36238 ft 481 kts 287°
2026-04-23 00:19 45.02713 14.37890 36236 ft 481 kts 287°
2026-04-23 00:20 45.04331 14.28747 36214 ft 481 kts 287°
2026-04-23 00:20 45.05678 14.21097 36231 ft 481 kts 287°
2026-04-23 00:21 45.07558 14.10365 36243 ft 481 kts 287°
2026-04-23 00:21 45.08884 14.02760 36251 ft 481 kts 287°
2026-04-23 00:22 45.10485 13.93530 36232 ft 482 kts 287°
2026-04-23 00:22 45.12070 13.84345 36244 ft 481 kts 287°
2026-04-23 00:23 45.13649 13.75145 36248 ft 480 kts 287°
2026-04-23 00:23 45.15221 13.65943 36252 ft 481 kts 287°
2026-04-23 00:24 45.16785 13.56733 36238 ft 482 kts 286°
2026-04-23 00:24 45.18348 13.47493 36256 ft 483 kts 286°
2026-04-23 00:25 45.19907 13.38215 36255 ft 483 kts 286°
2026-04-23 00:25 45.21455 13.28942 36254 ft 484 kts 286°
2026-04-23 00:26 45.23001 13.19630 36233 ft 484 kts 286°
2026-04-23 00:26 45.24535 13.10347 36247 ft 483 kts 286°
2026-04-23 00:27 45.26059 13.01077 36251 ft 483 kts 286°
2026-04-23 00:27 45.27502 12.91789 36254 ft 482 kts 285°
2026-04-23 00:28 45.28839 12.82504 36232 ft 482 kts 284°
2026-04-23 00:28 45.30174 12.73170 36249 ft 481 kts 284°
2026-04-23 00:29 45.31513 12.63863 36259 ft 481 kts 284°
2026-04-23 00:29 45.32854 12.54539 36257 ft 481 kts 284°
2026-04-23 00:30 45.34185 12.45235 36244 ft 481 kts 284°
2026-04-23 00:30 45.35502 12.35965 36261 ft 481 kts 284°
2026-04-23 00:31 45.36818 12.26640 36268 ft 481 kts 284°
2026-04-23 00:31 45.38128 12.17305 36257 ft 481 kts 284°
2026-04-23 00:32 45.39433 12.07945 36237 ft 481 kts 284°
2026-04-23 00:32 45.40725 11.98609 36252 ft 480 kts 284°
2026-04-23 00:33 45.41999 11.89351 36253 ft 480 kts 284°
2026-04-23 00:33 45.43279 11.79997 36252 ft 479 kts 284°
2026-04-23 00:34 45.44544 11.70688 36239 ft 479 kts 284°
2026-04-23 00:34 45.45801 11.61379 36256 ft 478 kts 284°
2026-04-23 00:35 45.47043 11.52121 36253 ft 478 kts 284°
2026-04-23 00:35 45.48281 11.42831 36260 ft 477 kts 284°
2026-04-23 00:36 45.49508 11.33563 36262 ft 477 kts 284°
2026-04-23 00:36 45.50729 11.24281 36256 ft 477 kts 284°
2026-04-23 00:37 45.51945 11.14977 36274 ft 477 kts 284°
2026-04-23 00:37 45.53158 11.05629 36272 ft 478 kts 284°
2026-04-23 00:38 45.54358 10.96326 36250 ft 478 kts 283°
2026-04-23 00:38 45.55551 10.87012 36264 ft 477 kts 283°
2026-04-23 00:39 45.56733 10.77720 36265 ft 477 kts 283°
2026-04-23 00:39 45.57912 10.68389 36264 ft 476 kts 283°
2026-04-23 00:40 45.59077 10.59096 36250 ft 476 kts 283°
2026-04-23 00:40 45.60228 10.49858 36259 ft 474 kts 283°
2026-04-23 00:41 45.61379 10.40560 36262 ft 473 kts 283°
2026-04-23 00:41 45.62513 10.31334 36263 ft 472 kts 283°
2026-04-23 00:42 45.63634 10.22157 36257 ft 472 kts 283°
2026-04-23 00:42 45.64718 10.12891 36245 ft 472 kts 281°
2026-04-23 00:43 45.64994 10.03481 36281 ft 475 kts 274°
2026-04-23 00:43 45.64951 9.94013 36279 ft 476 kts 274°
2026-04-23 00:44 45.64921 9.84548 36266 ft 477 kts 274°
2026-04-23 00:44 45.64909 9.75126 36258 ft 476 kts 274°
2026-04-23 00:45 45.64896 9.65656 36269 ft 476 kts 274°
2026-04-23 00:45 45.64875 9.56218 36266 ft 475 kts 274°
2026-04-23 00:46 45.64847 9.46820 36259 ft 475 kts 274°
2026-04-23 00:46 45.64808 9.37377 36257 ft 474 kts 274°
2026-04-23 00:47 45.64762 9.27962 36258 ft 473 kts 274°
2026-04-23 00:47 45.64710 9.18574 36259 ft 473 kts 274°
2026-04-23 00:48 45.64650 9.09120 36252 ft 473 kts 274°
2026-04-23 00:48 45.64766 8.99903 36224 ft 468 kts 280°
2026-04-23 00:48 45.65188 8.95346 35514 ft 463 kts 278°
2026-04-23 00:49 45.65642 8.90828 36345 ft 449 kts 281°
2026-04-23 00:49 45.66068 8.86536 36290 ft 430 kts 282°
2026-04-23 00:49 45.66477 8.82363 36200 ft 415 kts 282°
2026-04-23 00:50 45.67261 8.74321 36319 ft 413 kts 281°
2026-04-23 00:50 45.68050 8.66041 36224 ft 425 kts 282°
2026-04-23 00:51 45.68838 8.57635 36161 ft 433 kts 282°
2026-04-23 00:51 45.69628 8.49081 36135 ft 428 kts 282°
2026-04-23 00:52 45.70392 8.40727 36136 ft 426 kts 282°
2026-04-23 00:52 45.71158 8.32327 36140 ft 425 kts 282°
2026-04-23 00:53 45.71918 8.23906 36114 ft 425 kts 282°
2026-04-23 00:53 45.72673 8.15529 36142 ft 429 kts 282°
2026-04-23 00:54 45.73429 8.07030 36130 ft 431 kts 282°
2026-04-23 00:54 45.74183 7.98453 36129 ft 433 kts 282°
2026-04-23 00:55 45.74930 7.89897 36120 ft 435 kts 282°
2026-04-23 00:55 45.75670 7.81311 36104 ft 434 kts 282°
2026-04-23 00:56 45.76402 7.72788 36102 ft 430 kts 282°
2026-04-23 00:56 45.77124 7.64320 36087 ft 427 kts 282°
2026-04-23 00:57 45.77830 7.55936 36112 ft 424 kts 282°
2026-04-23 00:57 45.78531 7.47525 36105 ft 426 kts 282°
2026-04-23 00:57 45.78887 7.43280 35513 ft 435 kts 281°
2026-04-23 00:58 45.79240 7.39011 34997 ft 431 kts 281°
2026-04-23 00:58 45.79586 7.34763 34393 ft 423 kts 281°
2026-04-23 00:58 45.79925 7.30629 33907 ft 413 kts 282°
2026-04-23 00:58 45.80258 7.26591 32865 ft 402 kts 282°
2026-04-23 00:59 45.80589 7.22650 31228 ft 405 kts 283°
2026-04-23 00:59 45.80921 7.18672 30714 ft 397 kts 283°
2026-04-23 00:59 45.81248 7.14708 30052 ft 395 kts 283°
2026-04-23 00:59 45.81638 7.10863 29335 ft 388 kts 288°
2026-04-23 01:00 45.82406 7.07187 28686 ft 379 kts 294°
2026-04-23 01:00 45.83358 7.03730 28116 ft 372 kts 296°
2026-04-23 01:00 45.84458 7.00385 27546 ft 367 kts 301°
2026-04-23 01:00 45.85816 6.97351 26954 ft 363 kts 306°
2026-04-23 01:01 45.87271 6.94355 26402 ft 362 kts 305°
2026-04-23 01:01 45.88710 6.91378 25808 ft 371 kts 305°
2026-04-23 01:01 45.90202 6.88273 25269 ft 379 kts 305°
2026-04-23 01:01 45.91683 6.85166 24648 ft 379 kts 305°
2026-04-23 01:02 45.93170 6.82035 24058 ft 374 kts 304°
2026-04-23 01:02 45.94618 6.78981 23438 ft 370 kts 304°
2026-04-23 01:02 45.96067 6.75919 22808 ft 365 kts 304°
2026-04-23 01:02 45.97455 6.72942 22221 ft 359 kts 304°
2026-04-23 01:03 45.98835 6.69960 21677 ft 354 kts 303°
2026-04-23 01:03 46.00184 6.67038 21139 ft 352 kts 303°
2026-04-23 01:03 46.01542 6.64103 20599 ft 349 kts 303°
2026-04-23 01:03 46.02886 6.61193 20070 ft 347 kts 303°
2026-04-23 01:04 46.04206 6.58335 19529 ft 344 kts 303°
2026-04-23 01:04 46.05536 6.55462 19029 ft 342 kts 303°
2026-04-23 01:04 46.08196 6.49838 17911 ft 339 kts 304°
2026-04-23 01:05 46.09524 6.47035 17285 ft 336 kts 304°
2026-04-23 01:05 46.10815 6.44307 16813 ft 330 kts 304°
2026-04-23 01:05 46.12125 6.41531 16270 ft 332 kts 304°
2026-04-23 01:05 46.13424 6.38774 15714 ft 338 kts 304°
2026-04-23 01:06 46.14763 6.35931 15205 ft 349 kts 304°
2026-04-23 01:06 46.16142 6.32997 14654 ft 351 kts 303°
2026-04-23 01:06 46.17163 6.29840 14073 ft 350 kts 285°
2026-04-23 01:06 46.17369 6.26385 13489 ft 354 kts 268°
2026-04-23 01:07 46.16868 6.22879 12958 ft 355 kts 255°
2026-04-23 01:07 46.15859 6.19658 12437 ft 356 kts 239°
2026-04-23 01:07 46.14204 6.16991 11941 ft 355 kts 227°
2026-04-23 01:07 46.12450 6.14537 11453 ft 354 kts 227°
2026-04-23 01:08 46.10714 6.12020 11121 ft 347 kts 228°
2026-04-23 01:08 46.09040 6.09562 10969 ft 336 kts 228°
2026-04-23 01:08 46.07429 6.07231 10779 ft 326 kts 227°
2026-04-23 01:08 46.05842 6.04950 10642 ft 315 kts 227°
2026-04-23 01:09 46.04320 6.02761 10491 ft 306 kts 227°
2026-04-23 01:09 46.02850 6.00648 10376 ft 296 kts 227°
2026-04-23 01:09 46.01410 5.98575 10273 ft 286 kts 227°
2026-04-23 01:09 46.00022 5.96577 10131 ft 277 kts 227°
2026-04-23 01:10 45.98690 5.94662 9957 ft 271 kts 227°
2026-04-23 01:10 45.97351 5.92736 9638 ft 269 kts 227°
2026-04-23 01:10 45.96044 5.90860 9331 ft 267 kts 227°
2026-04-23 01:10 45.94798 5.88922 9064 ft 256 kts 239°
2026-04-23 01:11 45.94263 5.86587 8766 ft 246 kts 270°
2026-04-23 01:11 45.94571 5.84210 8430 ft 244 kts 294°
2026-04-23 01:11 45.95538 5.82210 8142 ft 241 kts 316°
2026-04-23 01:11 45.96852 5.80840 7968 ft 232 kts 335°
2026-04-23 01:12 45.98386 5.80375 7835 ft 227 kts 352°
2026-04-23 01:12 45.99991 5.80114 7577 ft 232 kts 351°
2026-04-23 01:12 46.01597 5.79875 7159 ft 233 kts 359°
2026-04-23 01:12 46.02640 5.80156 6991 ft 224 kts 23°
2026-04-23 01:13 46.04137 5.82003 6688 ft 205 kts 47°
2026-04-23 01:13 46.04769 5.82992 6526 ft 199 kts 46°
2026-04-23 01:13 46.05711 5.84401 6241 ft 193 kts 45°
2026-04-23 01:13 46.06632 5.85757 5982 ft 186 kts 45°
2026-04-23 01:14 46.07803 5.87471 5646 ft 175 kts 46°
2026-04-23 01:14 46.08370 5.88301 5509 ft 174 kts 46°
2026-04-23 01:14 46.09219 5.89542 5322 ft 176 kts 46°
2026-04-23 01:14 46.10083 5.90803 5088 ft 175 kts 46°
2026-04-23 01:15 46.10925 5.92033 4856 ft 172 kts 46°
2026-04-23 01:15 46.11765 5.93260 4619 ft 169 kts 47°
2026-04-23 01:15 46.12577 5.94449 4390 ft 168 kts 47°
2026-04-23 01:15 46.13397 5.95650 4170 ft 168 kts 46°
2026-04-23 01:16 46.14223 5.96857 3947 ft 167 kts 47°
2026-04-23 01:16 46.15020 5.98024 3706 ft 159 kts 45°
2026-04-23 01:16 46.15792 5.99154 3501 ft 156 kts 45°
2026-04-23 01:16 46.16544 6.00255 3304 ft 154 kts 45°
2026-04-23 01:17 46.17287 6.01343 3063 ft 147 kts 45°
2026-04-23 01:17 46.17981 6.02361 2905 ft 142 kts 44°
2026-04-23 01:17 46.18682 6.03387 2660 ft 143 kts 45°
2026-04-23 01:17 46.19383 6.04415 2469 ft 143 kts 45°
2026-04-23 01:18 46.20081 6.05438 2243 ft 143 kts 45°
2026-04-23 01:18 46.20780 6.06464 2020 ft 141 kts 45°
2026-04-23 01:18 46.21455 6.07454 1829 ft 138 kts 44°
2026-04-23 01:18 46.22135 6.08434 1633 ft 138 kts 45°
2026-04-23 01:19 46.22813 6.09435 1458 ft 141 kts 45°
2026-04-23 01:19 46.23471 6.10402 1406 ft 123 kts 45°
2026-04-23 01:19 46.23942 6.11095 1380 ft 69 kts 45°
2026-04-23 01:19 46.24170 6.11428 1376 ft 38 kts 45°
2026-04-23 01:20 46.24307 6.11685 1373 ft 23 kts 74°
2026-04-23 01:20 46.24341 6.11875 1369 ft 18 kts 82°
2026-04-23 01:20 46.24293 6.11940 1367 ft 11 kts 211°
2026-04-23 01:20 46.24236 6.11860 1367 ft 12 kts 225°
2026-04-23 01:21 46.24178 6.11775 1369 ft 12 kts 226°
2026-04-23 01:21 46.24120 6.11689 1369 ft 12 kts 225°
2026-04-23 01:21 46.24062 6.11604 1370 ft 13 kts 225°
2026-04-23 01:21 46.23989 6.11496 1373 ft 15 kts 225°
2026-04-23 01:22 46.23914 6.11386 1375 ft 15 kts 225°
2026-04-23 01:22 46.23839 6.11276 1379 ft 15 kts 225°
2026-04-23 01:22 46.23766 6.11168 1381 ft 15 kts 225°
2026-04-23 01:22 46.23697 6.11074 1402 ft 10 kts 206°
2026-04-23 01:23 46.23650 6.11098 1405 ft 8 kts 142°
2026-04-23 01:23 46.23601 6.11163 1406 ft 6 kts 147°
2026-04-23 01:23 46.23566 6.11148 1408 ft 7 kts 214°
2026-04-23 01:23 46.23530 6.11101 1404 ft 7 kts 224°
2026-04-23 01:24 46.23494 6.11049 1406 ft 7 kts 225°
2026-04-23 01:24 46.23457 6.10994 1408 ft 7 kts 226°
2026-04-23 01:24 46.23423 6.10986 1404 ft 6 kts 154°
2026-04-23 01:24 46.23397 6.11018 1406 ft 3 kts 136°
2026-04-23 01:25 46.23384 6.11035 1405 ft 1 kts 136°
2026-04-23 01:25 46.23383 6.11036 1406 ft 0 kts 136°